Year,Month,Day,Hour,Minute,Value (Times are PST for temperature in C)
2009,06,17,07,44,14.50
2009,06,17,07,45,14.60
2009,06,17,07,46,14.60
2009,06,17,07,47,14.60
2009,06,17,07,48,14.60
2009,06,17,07,49,14.70
2009,06,17,07,50,14.70
2009,06,17,07,51,14.70
2009,06,17,07,52,14.70
2009,06,17,07,53,14.70
2009,06,17,07,54,14.80
2009,06,17,07,55,14.80
2009,06,17,07,56,14.80
2009,06,17,07,57,14.80
2009,06,17,07,58,14.80
2009,06,17,07,59,14.80
2009,06,17,08,00,14.80
2009,06,17,08,01,14.80
2009,06,17,08,02,14.80
2009,06,17,08,03,14.80
2009,06,17,08,04,14.80
2009,06,17,08,05,14.80
2009,06,17,08,06,14.80
2009,06,17,08,07,14.80
2009,06,17,08,08,14.80
2009,06,17,08,09,14.80
2009,06,17,08,10,14.80
2009,06,17,08,11,14.80
2009,06,17,08,12,14.80
2009,06,17,08,13,14.80
2009,06,17,08,14,14.80
2009,06,17,08,15,14.80
2009,06,17,08,16,14.80
2009,06,17,08,17,14.90
2009,06,17,08,18,14.90
2009,06,17,08,19,14.80
2009,06,17,08,20,14.90
2009,06,17,08,21,14.90
2009,06,17,08,22,14.90
2009,06,17,08,23,14.90
2009,06,17,08,24,14.90
2009,06,17,08,25,14.90
2009,06,17,08,26,14.90
2009,06,17,08,27,14.90
2009,06,17,08,28,15.00
2009,06,17,08,29,15.00
2009,06,17,08,30,15.00
2009,06,17,08,31,15.00
2009,06,17,08,32,15.00
2009,06,17,08,33,15.00
2009,06,17,08,34,15.00
2009,06,17,08,35,15.00
2009,06,17,08,36,15.10
2009,06,17,08,37,15.10
2009,06,17,08,38,15.10
2009,06,17,08,39,15.10
2009,06,17,08,40,15.10
2009,06,17,08,41,15.10
2009,06,17,08,42,15.10
2009,06,17,08,43,15.10
2009,06,17,08,44,15.10
2009,06,17,08,45,15.20
2009,06,17,08,46,15.20
2009,06,17,08,47,15.20
2009,06,17,08,48,15.20
2009,06,17,08,49,15.20
2009,06,17,08,50,15.20
2009,06,17,08,51,15.20
2009,06,17,08,52,15.10
2009,06,17,08,53,15.10
2009,06,17,08,54,15.10
2009,06,17,08,55,15.10
2009,06,17,08,56,15.20
2009,06,17,08,57,15.20
2009,06,17,08,58,15.20
2009,06,17,08,59,15.20
2009,06,17,09,00,15.20
2009,06,17,09,01,15.30
2009,06,17,09,02,15.30
2009,06,17,09,03,15.30
2009,06,17,09,04,15.40
2009,06,17,09,05,15.50
2009,06,17,09,06,15.50
2009,06,17,09,07,15.50
2009,06,17,09,08,15.60
2009,06,17,09,09,15.60
2009,06,17,09,10,15.70
2009,06,17,09,11,15.80
2009,06,17,09,12,15.80
2009,06,17,09,13,15.90
2009,06,17,09,14,15.90
2009,06,17,09,15,16.10
2009,06,17,09,16,16.10
2009,06,17,09,17,16.10
2009,06,17,09,18,16.10
2009,06,17,09,19,16.10
2009,06,17,09,20,16.10
2009,06,17,09,21,16.10
2009,06,17,09,22,16.10
2009,06,17,09,23,16.10
2009,06,17,09,24,16.10
2009,06,17,09,25,16.10
2009,06,17,09,26,16.10
2009,06,17,09,27,16.10
2009,06,17,09,28,16.10
2009,06,17,09,29,16.10
2009,06,17,09,30,16.10
2009,06,17,09,31,16.10
2009,06,17,09,32,16.20
2009,06,17,09,33,16.20
2009,06,17,09,34,16.20
2009,06,17,09,35,16.20
2009,06,17,09,36,16.30
2009,06,17,09,37,16.30
2009,06,17,09,38,16.30
2009,06,17,09,39,16.40
2009,06,17,09,40,16.40
2009,06,17,09,41,16.40
2009,06,17,09,42,16.50
2009,06,17,09,43,16.60
2009,06,17,09,44,16.60
2009,06,17,09,45,16.60
2009,06,17,09,46,16.70
2009,06,17,09,47,16.70
2009,06,17,09,48,16.70
2009,06,17,09,49,16.70
2009,06,17,09,50,16.70
2009,06,17,09,51,16.80
2009,06,17,09,52,16.80
2009,06,17,09,53,16.80
2009,06,17,09,54,16.90
2009,06,17,09,55,16.90
2009,06,17,09,56,16.90
2009,06,17,09,57,16.90
2009,06,17,09,58,16.90
2009,06,17,09,59,16.90
2009,06,17,10,00,16.90
2009,06,17,10,01,16.90
2009,06,17,10,02,17.00
2009,06,17,10,03,17.00
2009,06,17,10,04,17.00
2009,06,17,10,05,17.00
2009,06,17,10,06,17.00
2009,06,17,10,07,17.00
2009,06,17,10,08,17.00
2009,06,17,10,09,17.00
2009,06,17,10,10,17.10
2009,06,17,10,11,17.10
2009,06,17,10,12,17.00
2009,06,17,10,13,17.00
2009,06,17,10,14,17.00
2009,06,17,10,15,17.00
2009,06,17,10,16,16.90
2009,06,17,10,17,16.90
2009,06,17,10,18,16.80
2009,06,17,10,19,16.80
2009,06,17,10,20,16.90
2009,06,17,10,21,16.90
2009,06,17,10,22,16.90
2009,06,17,10,23,16.90
2009,06,17,10,24,17.00
2009,06,17,10,25,17.00
2009,06,17,10,26,17.00
2009,06,17,10,27,17.10
2009,06,17,10,28,17.10
2009,06,17,10,29,17.10
2009,06,17,10,30,17.10
2009,06,17,10,31,17.20
2009,06,17,10,32,17.20
2009,06,17,10,33,17.20
2009,06,17,10,34,17.30
2009,06,17,10,35,17.20
2009,06,17,10,36,17.20
2009,06,17,10,37,17.20
2009,06,17,10,38,17.20
2009,06,17,10,39,17.20
2009,06,17,10,40,17.30
2009,06,17,10,41,17.30
2009,06,17,10,42,17.30
2009,06,17,10,43,17.30
2009,06,17,10,44,17.30
2009,06,17,10,45,17.30
2009,06,17,10,46,17.30
2009,06,17,10,47,17.30
2009,06,17,10,48,17.30
2009,06,17,10,49,17.30
2009,06,17,10,50,17.30
2009,06,17,10,51,17.30
2009,06,17,10,52,17.30
2009,06,17,10,53,17.30
2009,06,17,10,54,17.30
2009,06,17,10,55,17.40
2009,06,17,10,56,17.40
2009,06,17,10,57,17.50
2009,06,17,10,58,17.50
2009,06,17,10,59,17.60
2009,06,17,11,00,17.70
2009,06,17,11,01,17.70
2009,06,17,11,02,17.80
2009,06,17,11,03,17.80
2009,06,17,11,04,17.90
2009,06,17,11,05,17.90
2009,06,17,11,06,17.90
2009,06,17,11,07,17.90
2009,06,17,11,08,17.90
2009,06,17,11,09,17.90
2009,06,17,11,10,17.90
2009,06,17,11,11,17.90
2009,06,17,11,12,17.90
2009,06,17,11,13,17.90
2009,06,17,11,14,17.90
2009,06,17,11,15,17.90
2009,06,17,11,16,18.00
2009,06,17,11,17,18.10
2009,06,17,11,18,18.20
2009,06,17,11,19,18.20
2009,06,17,11,20,18.20
2009,06,17,11,21,18.20
2009,06,17,11,22,18.20
2009,06,17,11,23,18.20
2009,06,17,11,24,18.20
2009,06,17,11,25,18.20
2009,06,17,11,26,18.20
2009,06,17,11,27,18.20
2009,06,17,11,28,18.20
2009,06,17,11,29,18.20
2009,06,17,11,30,18.20
2009,06,17,11,31,18.20
2009,06,17,11,32,18.20
2009,06,17,11,33,18.20
2009,06,17,11,34,18.30
2009,06,17,11,35,18.30
2009,06,17,11,36,18.30
2009,06,17,11,37,18.30
2009,06,17,11,38,18.30
2009,06,17,11,39,18.40
2009,06,17,11,40,18.40
2009,06,17,11,41,18.40
2009,06,17,11,42,18.50
2009,06,17,11,43,18.50
2009,06,17,11,44,18.50
2009,06,17,11,45,18.60
2009,06,17,11,46,18.60
2009,06,17,11,47,18.60
2009,06,17,11,48,18.60
2009,06,17,11,49,18.70
2009,06,17,11,50,18.70
2009,06,17,11,51,18.80
2009,06,17,11,52,18.80
2009,06,17,11,53,18.90
2009,06,17,11,54,18.90
2009,06,17,11,55,19.00
2009,06,17,11,56,19.10
2009,06,17,11,57,19.10
2009,06,17,11,58,19.10
2009,06,17,11,59,19.20
2009,06,17,12,00,19.30
2009,06,17,12,01,19.30
2009,06,17,12,02,19.40
2009,06,17,12,03,19.40
2009,06,17,12,04,19.40
2009,06,17,12,05,19.40
2009,06,17,12,06,19.40
2009,06,17,12,07,19.50
2009,06,17,12,08,19.40
2009,06,17,12,09,19.40
2009,06,17,12,10,19.50
2009,06,17,12,11,19.60
2009,06,17,12,12,19.60
2009,06,17,12,13,19.70
2009,06,17,12,14,19.90
2009,06,17,12,15,20.00
2009,06,17,12,16,20.10
2009,06,17,12,17,20.00
2009,06,17,12,18,19.90
2009,06,17,12,19,19.90
2009,06,17,12,20,19.90
2009,06,17,12,21,19.90
2009,06,17,12,22,19.90
2009,06,17,12,23,19.90
2009,06,17,12,24,19.80
2009,06,17,12,25,19.80
2009,06,17,12,26,19.90
2009,06,17,12,27,19.90
2009,06,17,12,28,19.90
2009,06,17,12,29,19.90
2009,06,17,12,30,19.90
2009,06,17,12,31,19.90
2009,06,17,12,32,19.90
2009,06,17,12,33,20.10
2009,06,17,12,34,20.20
2009,06,17,12,35,20.30
2009,06,17,12,36,20.40
2009,06,17,12,37,20.40
2009,06,17,12,38,20.30
2009,06,17,12,39,20.30
2009,06,17,12,40,20.40
2009,06,17,12,41,20.50
2009,06,17,12,42,20.50
2009,06,17,12,43,20.70
2009,06,17,12,44,20.90
2009,06,17,12,45,21.00
2009,06,17,12,46,21.10
2009,06,17,12,47,21.20
2009,06,17,12,48,21.30
2009,06,17,12,49,21.30
2009,06,17,12,50,21.20
2009,06,17,12,51,21.20
2009,06,17,12,52,21.20
2009,06,17,12,53,21.20
2009,06,17,12,54,21.20
2009,06,17,12,55,21.10
2009,06,17,12,56,21.10
2009,06,17,12,57,21.00
2009,06,17,12,58,20.90
2009,06,17,12,59,20.70
2009,06,17,13,00,20.70
2009,06,17,13,01,20.50
2009,06,17,13,02,20.30
2009,06,17,13,03,20.20
2009,06,17,13,04,20.20
2009,06,17,13,05,20.20
2009,06,17,13,06,20.20
2009,06,17,13,07,20.20
2009,06,17,13,08,20.30
2009,06,17,13,09,20.40
2009,06,17,13,10,20.50
2009,06,17,13,11,20.40
2009,06,17,13,12,20.30
2009,06,17,13,13,20.10
2009,06,17,13,14,20.00
2009,06,17,13,15,19.90
2009,06,17,13,16,20.00
2009,06,17,13,17,20.10
2009,06,17,13,18,20.10
2009,06,17,13,19,19.80
2009,06,17,13,20,19.70
2009,06,17,13,21,19.70
2009,06,17,13,22,19.60
2009,06,17,13,23,19.50
2009,06,17,13,24,19.40
2009,06,17,13,25,19.30
2009,06,17,13,26,19.40
2009,06,17,13,27,19.40
2009,06,17,13,28,19.40
2009,06,17,13,29,19.30
2009,06,17,13,30,19.40
2009,06,17,13,31,19.50
2009,06,17,13,32,19.60
2009,06,17,13,33,19.60
2009,06,17,13,34,19.60
2009,06,17,13,35,19.70
2009,06,17,13,36,19.70
2009,06,17,13,37,19.80
2009,06,17,13,38,19.80
2009,06,17,13,39,19.70
2009,06,17,13,40,19.70
2009,06,17,13,41,19.70
2009,06,17,13,42,19.70
2009,06,17,13,43,19.80
2009,06,17,13,44,19.80
2009,06,17,13,45,19.70
2009,06,17,13,46,19.70
2009,06,17,13,47,19.80
2009,06,17,13,48,19.90
2009,06,17,13,49,19.90
2009,06,17,13,50,19.90
2009,06,17,13,51,19.90
2009,06,17,13,52,19.90
2009,06,17,13,53,19.90
2009,06,17,13,54,20.10
2009,06,17,13,55,20.20
2009,06,17,13,56,20.20
2009,06,17,13,57,20.30
2009,06,17,13,58,20.40
2009,06,17,13,59,20.50
2009,06,17,14,00,20.60
2009,06,17,14,01,20.60
2009,06,17,14,02,20.60
2009,06,17,14,03,20.50
2009,06,17,14,04,20.30
2009,06,17,14,05,20.20
2009,06,17,14,06,20.20
2009,06,17,14,07,20.10
2009,06,17,14,08,20.10
2009,06,17,14,09,20.20
2009,06,17,14,10,20.30
2009,06,17,14,11,20.30
2009,06,17,14,12,20.30
2009,06,17,14,13,20.30
2009,06,17,14,14,20.30
2009,06,17,14,15,20.40
2009,06,17,14,16,20.40
2009,06,17,14,17,20.40
2009,06,17,14,18,20.40
2009,06,17,14,19,20.40
2009,06,17,14,20,20.40
2009,06,17,14,21,20.40
2009,06,17,14,22,20.40
2009,06,17,14,23,20.40
2009,06,17,14,24,20.40
2009,06,17,14,25,20.40
2009,06,17,14,26,20.30
2009,06,17,14,27,20.30
2009,06,17,14,28,20.30
2009,06,17,14,29,20.30
2009,06,17,14,30,20.40
2009,06,17,14,31,20.50
2009,06,17,14,32,20.60
2009,06,17,14,33,20.60
2009,06,17,14,34,20.60
2009,06,17,14,35,20.60
2009,06,17,14,36,20.60
2009,06,17,14,37,20.70
2009,06,17,14,38,20.80
2009,06,17,14,39,20.80
2009,06,17,14,40,20.80
2009,06,17,14,41,20.70
2009,06,17,14,42,20.80
2009,06,17,14,43,20.90
2009,06,17,14,44,21.00
2009,06,17,14,45,21.10
2009,06,17,14,46,21.20
2009,06,17,14,47,21.10
2009,06,17,14,48,21.10
2009,06,17,14,49,21.10
2009,06,17,14,50,21.20
2009,06,17,14,51,21.20
2009,06,17,14,52,21.20
2009,06,17,14,53,21.20
2009,06,17,14,54,21.30
2009,06,17,14,55,21.30
2009,06,17,14,56,21.30
2009,06,17,14,57,21.30
2009,06,17,14,58,21.40
2009,06,17,14,59,21.50
2009,06,17,15,00,21.60
2009,06,17,15,01,21.60
2009,06,17,15,02,21.60
2009,06,17,15,03,21.60
2009,06,17,15,04,21.60
2009,06,17,15,05,21.80
2009,06,17,15,06,21.80
2009,06,17,15,07,21.90
2009,06,17,15,08,21.70
2009,06,17,15,09,21.60
2009,06,17,15,10,21.60
2009,06,17,15,11,21.60
2009,06,17,15,12,21.50
2009,06,17,15,13,21.40
2009,06,17,15,14,21.30
2009,06,17,15,15,21.10
2009,06,17,15,16,21.10
2009,06,17,15,17,21.10
2009,06,17,15,18,21.10
2009,06,17,15,19,21.20
2009,06,17,15,20,21.30
2009,06,17,15,21,21.30
2009,06,17,15,22,21.40
2009,06,17,15,23,21.50
2009,06,17,15,24,21.40
2009,06,17,15,25,21.50
2009,06,17,15,26,21.60
2009,06,17,15,27,21.50
2009,06,17,15,28,21.40
2009,06,17,15,29,21.40
2009,06,17,15,30,21.40
2009,06,17,15,31,21.30
2009,06,17,15,32,21.30
2009,06,17,15,33,21.30
2009,06,17,15,34,21.30
2009,06,17,15,35,21.20
2009,06,17,15,36,21.00
2009,06,17,15,37,20.90
2009,06,17,15,38,20.90
2009,06,17,15,39,21.10
2009,06,17,15,40,21.20
2009,06,17,15,41,21.30
2009,06,17,15,42,21.40
2009,06,17,15,43,21.60
2009,06,17,15,44,21.60
2009,06,17,15,45,21.60
2009,06,17,15,46,21.60
2009,06,17,15,47,21.50
2009,06,17,15,48,21.40
2009,06,17,15,49,21.30
2009,06,17,15,50,21.20
2009,06,17,15,51,21.00
2009,06,17,15,52,20.90
2009,06,17,15,53,20.90
2009,06,17,15,54,20.90
2009,06,17,15,55,20.90
2009,06,17,15,56,20.90
2009,06,17,15,57,20.90
2009,06,17,15,58,21.00
2009,06,17,15,59,21.10
2009,06,17,16,00,21.00
2009,06,17,16,01,20.80
2009,06,17,16,02,20.80
2009,06,17,16,03,20.90
2009,06,17,16,04,21.00
2009,06,17,16,05,21.10
2009,06,17,16,06,21.10
2009,06,17,16,07,21.10
2009,06,17,16,08,21.10
2009,06,17,16,09,21.20
2009,06,17,16,10,21.30
2009,06,17,16,11,21.40
2009,06,17,16,12,21.50
2009,06,17,16,13,21.60
2009,06,17,16,14,21.60
2009,06,17,16,15,21.60
2009,06,17,16,16,21.60
2009,06,17,16,17,21.60
2009,06,17,16,18,21.60
2009,06,17,16,19,21.50
2009,06,17,16,20,21.40
2009,06,17,16,21,21.00
2009,06,17,16,22,20.80
2009,06,17,16,23,20.70
2009,06,17,16,24,20.70
2009,06,17,16,25,20.70
2009,06,17,16,26,20.70
2009,06,17,16,27,20.80
2009,06,17,16,28,20.90
2009,06,17,16,29,21.00
2009,06,17,16,30,21.10
2009,06,17,16,31,21.20
2009,06,17,16,32,21.30
2009,06,17,16,33,21.30
2009,06,17,16,34,21.30
2009,06,17,16,35,21.40
2009,06,17,16,36,21.40
2009,06,17,16,37,21.50
2009,06,17,16,38,21.60
2009,06,17,16,39,21.70
2009,06,17,16,40,21.80
2009,06,17,16,41,21.90
2009,06,17,16,42,22.00
2009,06,17,16,43,22.00
2009,06,17,16,44,22.10
2009,06,17,16,45,22.20
2009,06,17,16,46,22.30
2009,06,17,16,47,22.30
2009,06,17,16,48,22.40
2009,06,17,16,49,22.50
2009,06,17,16,50,22.60
2009,06,17,16,51,22.60
2009,06,17,16,52,22.60
2009,06,17,16,53,22.50
2009,06,17,16,54,22.50
2009,06,17,16,55,22.40
2009,06,17,16,56,22.40
2009,06,17,16,57,22.40
2009,06,17,16,58,22.40
2009,06,17,16,59,22.40
2009,06,17,17,00,22.40
2009,06,17,17,01,22.30
2009,06,17,17,02,22.20
2009,06,17,17,03,22.20
2009,06,17,17,04,22.10
2009,06,17,17,05,22.00
2009,06,17,17,06,22.00
2009,06,17,17,07,21.90
2009,06,17,17,08,22.00
2009,06,17,17,09,22.00
2009,06,17,17,10,22.10
2009,06,17,17,11,22.10
2009,06,17,17,12,22.10
2009,06,17,17,13,22.20
2009,06,17,17,14,22.20
2009,06,17,17,15,22.30
2009,06,17,17,16,22.30
2009,06,17,17,17,22.30
2009,06,17,17,18,22.30
2009,06,17,17,19,22.30
2009,06,17,17,20,22.20
2009,06,17,17,21,22.20
2009,06,17,17,22,22.20
2009,06,17,17,23,22.20
2009,06,17,17,24,22.30
2009,06,17,17,25,22.30
2009,06,17,17,26,22.30
2009,06,17,17,27,22.30
2009,06,17,17,28,22.40
2009,06,17,17,29,22.50
2009,06,17,17,30,22.50
2009,06,17,17,31,22.40
2009,06,17,17,32,22.30
2009,06,17,17,33,22.20
2009,06,17,17,34,22.10
2009,06,17,17,35,22.10
2009,06,17,17,36,22.10
2009,06,17,17,37,22.00
2009,06,17,17,38,22.00
2009,06,17,17,39,22.00
2009,06,17,17,40,22.00
2009,06,17,17,41,22.00
2009,06,17,17,42,22.10
2009,06,17,17,43,22.10
2009,06,17,17,44,22.10
2009,06,17,17,45,22.10
2009,06,17,17,46,22.10
2009,06,17,17,47,22.00
2009,06,17,17,48,22.00
2009,06,17,17,49,21.90
2009,06,17,17,50,21.90
2009,06,17,17,51,21.90
2009,06,17,17,52,22.00
2009,06,17,17,53,22.00
2009,06,17,17,54,22.00
2009,06,17,17,55,22.00
2009,06,17,17,56,22.00
2009,06,17,17,57,22.00
2009,06,17,17,58,22.10
2009,06,17,17,59,22.10
2009,06,17,18,00,22.10
2009,06,17,18,01,22.10
2009,06,17,18,02,22.00
2009,06,17,18,03,22.00
2009,06,17,18,04,22.00
2009,06,17,18,05,21.90
2009,06,17,18,06,21.90
2009,06,17,18,07,21.90
2009,06,17,18,08,21.90
2009,06,17,18,09,21.80
2009,06,17,18,10,21.70
2009,06,17,18,11,21.60
2009,06,17,18,12,21.50
2009,06,17,18,13,21.40
2009,06,17,18,14,21.40
2009,06,17,18,15,21.40
2009,06,17,18,16,21.40
2009,06,17,18,17,21.30
2009,06,17,18,18,21.30
2009,06,17,18,19,21.30
2009,06,17,18,20,21.30
2009,06,17,18,21,21.30
2009,06,17,18,22,21.30
2009,06,17,18,23,21.30
2009,06,17,18,24,21.40
2009,06,17,18,25,21.40
2009,06,17,18,26,21.50
2009,06,17,18,27,21.60
2009,06,17,18,28,21.60
2009,06,17,18,29,21.60
2009,06,17,18,30,21.50
2009,06,17,18,31,21.40
2009,06,17,18,32,21.40
2009,06,17,18,33,21.40
2009,06,17,18,34,21.40
2009,06,17,18,35,21.40
2009,06,17,18,36,21.40
2009,06,17,18,37,21.30
2009,06,17,18,38,21.40
2009,06,17,18,39,21.40
2009,06,17,18,40,21.40
2009,06,17,18,41,21.40
2009,06,17,18,42,21.30
2009,06,17,18,43,21.20
2009,06,17,18,44,21.20
2009,06,17,18,45,21.10
2009,06,17,18,46,21.20
2009,06,17,18,47,21.20
2009,06,17,18,48,21.30
2009,06,17,18,49,21.30
2009,06,17,18,50,21.20
2009,06,17,18,51,21.20
2009,06,17,18,52,21.20
2009,06,17,18,53,21.10
2009,06,17,18,54,21.10
2009,06,17,18,55,21.10
2009,06,17,18,56,21.10
2009,06,17,18,57,21.10
2009,06,17,18,58,21.10
2009,06,17,18,59,21.10
2009,06,17,19,00,21.10
2009,06,17,19,01,21.10
2009,06,17,19,02,21.10
2009,06,17,19,03,21.10
2009,06,17,19,04,21.20
2009,06,17,19,05,21.20
2009,06,17,19,06,21.20
2009,06,17,19,07,21.20
2009,06,17,19,08,21.20
2009,06,17,19,09,21.20
2009,06,17,19,10,21.20
2009,06,17,19,11,21.10
2009,06,17,19,12,21.10
2009,06,17,19,13,21.10
2009,06,17,19,14,21.10
2009,06,17,19,15,21.00
2009,06,17,19,16,21.00
2009,06,17,19,17,21.00
2009,06,17,19,18,20.90
2009,06,17,19,19,20.90
2009,06,17,19,20,20.80
2009,06,17,19,21,20.80
2009,06,17,19,22,20.80
2009,06,17,19,23,20.80
2009,06,17,19,24,20.80
2009,06,17,19,25,20.80
2009,06,17,19,26,20.70
2009,06,17,19,27,20.70
2009,06,17,19,28,20.70
2009,06,17,19,29,20.70
2009,06,17,19,30,20.70
2009,06,17,19,31,20.70
2009,06,17,19,32,20.60
2009,06,17,19,33,20.60
2009,06,17,19,34,20.60
2009,06,17,19,35,20.60
2009,06,17,19,36,20.50
2009,06,17,19,37,20.50
2009,06,17,19,38,20.50
2009,06,17,19,39,20.50
2009,06,17,19,40,20.40
2009,06,17,19,41,20.40
2009,06,17,19,42,20.40
2009,06,17,19,43,20.30
2009,06,17,19,44,20.20
2009,06,17,19,45,20.20
2009,06,17,19,46,20.20
2009,06,17,19,47,20.20
2009,06,17,19,48,20.10
2009,06,17,19,49,20.10
2009,06,17,19,50,20.10
2009,06,17,19,51,20.10
2009,06,17,19,52,20.10
2009,06,17,19,53,20.10
2009,06,17,19,54,20.10
2009,06,17,19,55,20.10
2009,06,17,19,56,20.10
2009,06,17,19,57,20.10
2009,06,17,19,58,20.10
